En Direct

LFST 221700Z AUTO 19017KT 9999 FEW049 SCT072 BKN100 12/08 Q0991 TEMPO 25025G48KT 3000 SHRA FEW030CB


TAF LFST 221100Z 2212/2312 19015KT 9999 BKN030 TEMPO 2212/2217 19015G30KT -RA TEMPO 2217/2223 20015G30KT SHRA SCT040TCU PROB40 TEMPO 2218/2223 25025G48KT 3000 SHRA FEW030CB

Nos Avions

7 avions disponibles et entretenus par un atelier agréé, permettant tous types de vols (formation, promenade, voyage…)

l'école de pilotage

PPL, LAPL, Vol de nuit, SEP… Toutes ces formations sont dispensées par nos instructeurs bénévoles.
Formation Théorique Mermoz via la FFA

Notre Plateforme

Nous sommes basés à l’aéroport de Strasbourg-Entzheim (LFST) en plein coeur de l’Alsace qui permet de voyager rapidement outre Rhin, mais également de profiter des paysages variés

Nos réseaux

Suivez-nous sur les réseaux sociaux